QPF
0.00 0.00 0.00 0.00 0.00 0.00 0.00 0.00 0.01 0.01 0.00 0.00 0.00 0.00 0.00 0.00 0.00 0.00 0.00 0.00 0.00 0.00 0.00 0.01 0.01 0.01 0.01 0.01 0.02 0.02 0.02 0.03 0.03 0.03 0.04 0.04 0.05 0.06
0.00 0.00 0.00 0.00 0.00 0.00 0.00 0.00 0.00 0.01 0.01 0.00 0.00 0.00 0.00 0.00 0.00 0.00 0.00 0.00 0.00 0.00 0.00 0.00 0.01 0.01 0.01 0.01 0.02 0.02 0.02 0.03 0.03 0.03 0.04 0.04 0.05 0.06
0.01 0.01 0.00 0.00 0.00 0.00 0.00 0.00 0.00 0.00 0.01 0.00 0.00 0.00 0.00 0.00 0.00 0.00 0.00 0.00 0.00 0.00 0.00 0.00 0.01 0.01 0.01 0.01 0.02 0.02 0.02 0.03 0.03 0.03 0.04 0.04 0.05 0.06
0.02 0.01 0.01 0.01 0.00 0.00 0.00 0.00 0.00 0.00 0.01 0.01 0.00 0.00 0.00 0.00 0.00 0.00 0.00 0.00 0.00 0.00 0.00 0.00 0.01 0.01 0.01 0.01 0.02 0.02 0.02 0.02 0.03 0.03 0.03 0.04 0.04 0.05
0.02 0.02 0.02 0.01 0.01 0.01 0.00 0.00 0.00 0.00 0.00 0.01 0.01 0.00 0.00 0.00 0.00 0.00 0.00 0.00 0.00 0.00 0.00 0.00 0.00 0.01 0.01 0.01 0.02 0.02 0.02 0.02 0.02 0.03 0.03 0.03 0.04 0.04
0.01 0.02 0.02 0.01 0.01 0.01 0.01 0.01 0.00 0.01 0.01 0.01 0.00 0.00 0.00 0.00 0.00 0.00 0.00 0.01 0.00 0.00 0.00 0.00 0.00 0.00 0.01 0.01 0.01 0.01 0.02 0.02 0.02 0.02 0.02 0.02 0.03 0.03
0.01 0.01 0.01 0.01 0.01 0.01 0.01 0.01 0.01 0.02 0.02 0.01 0.01 0.01 0.01 0.00 0.00 0.01 0.01 0.01 0.01 0.00 0.00 0.00 0.00 0.00 0.01 0.01 0.01 0.01 0.02 0.02 0.02 0.02 0.02 0.02 0.02 0.03
0.01 0.01 0.01 0.01 0.01 0.01 0.01 0.01 0.02 0.02 0.02 0.02 0.01 0.01 0.01 0.01 0.01 0.01 0.01 0.01 0.01 0.01 0.01 0.01 0.01 0.01 0.01 0.01 0.02 0.02 0.02 0.02 0.02 0.02 0.02 0.02 0.03 0.04
0.01 0.01 0.01 0.01 0.01 0.01 0.01 0.02 0.02 0.01 0.02 0.02 0.02 0.02 0.02 0.02 0.02 0.02 0.02 0.02 0.02 0.01 0.01 0.01 0.01 0.02 0.02 0.02 0.02 0.02 0.03 0.02 0.03 0.03 0.03 0.04 0.06 0.05
0.00 0.01 0.01 0.01 0.01 0.01 0.01 0.01 0.01 0.02 0.02 0.02 0.02 0.02 0.02 0.02 0.02 0.02 0.02 0.02 0.01 0.01 0.02 0.02 0.02 0.03 0.03 0.03 0.04 0.04 0.04 0.04 0.03 0.03 0.05 0.07 0.06 0.03
0.00 0.00 0.01 0.01 0.02 0.02 0.02 0.02 0.02 0.02 0.02 0.02 0.02 0.02 0.02 0.02 0.02 0.02 0.01 0.01 0.01 0.01 0.02 0.03 0.03 0.04 0.03 0.03 0.05 0.05 0.04 0.04 0.04 0.04 0.05 0.04 0.03 0.02
0.00 0.00 0.01 0.01 0.02 0.03 0.03 0.03 0.03 0.03 0.02 0.02 0.01 0.01 0.01 0.01 0.01 0.02 0.02 0.03 0.03 0.03 0.03 0.04 0.03 0.03 0.04 0.03 0.03 0.03 0.02 0.03 0.04 0.05 0.04 0.03 0.02 0.01
0.01 0.01 0.01 0.02 0.02 0.02 0.02 0.02 0.03 0.03 0.02 0.02 0.01 0.01 0.01 0.01 0.01 0.01 0.01 0.03 0.04 0.04 0.03 0.04 0.04 0.03 0.04 0.03 0.02 0.02 0.02 0.02 0.02 0.02 0.02 0.02 0.02 0.02
0.01 0.01 0.01 0.02 0.02 0.02 0.02 0.02 0.02 0.02 0.02 0.02 0.02 0.02 0.01 0.01 0.01 0.01 0.01 0.02 0.02 0.03 0.03 0.04 0.05 0.05 0.04 0.03 0.02 0.02 0.01 0.01 0.01 0.01 0.01 0.01 0.01 0.02
0.01 0.02 0.02 0.02 0.02 0.01 0.01 0.02 0.02 0.02 0.02 0.02 0.02 0.02 0.02 0.01 0.01 0.01 0.01 0.01 0.01 0.01 0.02 0.02 0.03 0.04 0.04 0.04 0.04 0.03 0.02 0.01 0.01 0.01 0.01 0.01 0.02 0.02
0.02 0.01 0.01 0.01 0.01 0.01 0.01 0.01 0.01 0.02 0.02 0.02 0.02 0.02 0.01 0.01 0.01 0.01 0.01 0.01 0.01 0.01 0.01 0.01 0.01 0.02 0.02 0.02 0.02 0.02 0.02 0.02 0.02 0.02 0.03 0.03 0.02 0.03
0.01 0.01 0.01 0.01 0.01 0.01 0.01 0.01 0.02 0.02 0.02 0.02 0.01 0.01 0.01 0.02 0.02 0.02 0.02 0.02 0.02 0.01 0.01 0.01 0.01 0.01 0.01 0.02 0.02 0.02 0.01 0.01 0.01 0.02 0.02 0.03 0.02 0.02
0.01 0.01 0.01 0.01 0.01 0.02 0.02 0.02 0.02 0.02 0.01 0.01 0.02 0.02 0.02 0.02 0.02 0.02 0.02 0.02 0.02 0.02 0.01 0.01 0.01 0.01 0.01 0.01 0.02 0.02 0.02 0.01 0.01 0.01 0.02 0.03 0.03 0.03
0.02 0.02 0.01 0.02 0.02 0.02 0.02 0.02 0.02 0.02 0.02 0.02 0.02 0.02 0.03 0.03 0.03 0.03 0.02 0.02 0.02 0.02 0.01 0.01 0.02 0.02 0.02 0.02 0.02 0.01 0.02 0.02 0.02 0.02 0.02 0.03 0.04 0.04
0.01 0.01 0.01 0.01 0.02 0.02 0.02 0.02 0.02 0.02 0.02 0.02 0.03 0.03 0.03 0.03 0.03 0.03 0.03 0.03 0.02 0.02 0.01 0.01 0.01 0.02 0.03 0.03 0.03 0.02 0.02 0.03 0.03 0.03 0.03 0.03 0.04 0.03
0.01 0.01 0.01 0.01 0.01 0.01 0.01 0.02 0.02 0.02 0.02 0.03 0.03 0.03 0.03 0.03 0.03 0.03 0.03 0.02 0.02 0.02 0.02 0.01 0.01 0.01 0.02 0.02 0.02 0.02 0.02 0.02 0.03 0.03 0.03 0.03 0.03 0.03
0.01 0.01 0.01 0.01 0.01 0.01 0.01 0.01 0.02 0.02 0.02 0.03 0.02 0.02 0.03 0.03 0.03 0.03 0.02 0.02 0.02 0.02 0.02 0.01 0.01 0.01 0.01 0.02 0.02 0.02 0.02 0.02 0.02 0.02 0.02 0.03 0.03 0.04
0.01 0.01 0.01 0.01 0.01 0.01 0.02 0.02 0.02 0.02 0.02 0.02 0.02 0.02 0.02 0.03 0.03 0.03 0.02 0.02 0.01 0.01 0.01 0.01 0.01 0.01 0.01 0.01 0.02 0.02 0.02 0.02 0.02 0.02 0.02 0.02 0.02 0.03
MSLP
1021.55 1022.22 1022.82 1023.35 1023.80 1024.17 1024.48 1024.73 1024.95 1025.14 1025.30 1025.44 1025.54 1025.60 1025.60 1025.53 1025.40 1025.21 1024.96 1024.66 1024.31 1023.92 1023.49 1023.00 1022.45 1021.82 1021.11 1020.30 1019.41 1018.44 1017.41 1016.33 1015.20 1014.03 1012.80 1011.48 1010.06 1008.50
1020.69 1021.35 1021.97 1022.54 1023.05 1023.51 1023.92 1024.29 1024.63 1024.94 1025.21 1025.43 1025.60 1025.70 1025.72 1025.67 1025.54 1025.36 1025.12 1024.84 1024.52 1024.17 1023.78 1023.33 1022.82 1022.22 1021.53 1020.73 1019.85 1018.90 1017.88 1016.83 1015.74 1014.62 1013.45 1012.19 1010.82 1009.31
1019.78 1020.44 1021.06 1021.65 1022.21 1022.75 1023.26 1023.75 1024.22 1024.65 1025.04 1025.36 1025.61 1025.76 1025.82 1025.79 1025.68 1025.50 1025.28 1025.02 1024.73 1024.42 1024.07 1023.66 1023.19 1022.62 1021.95 1021.17 1020.31 1019.36 1018.37 1017.35 1016.30 1015.22 1014.11 1012.92 1011.62 1010.18
1018.85 1019.49 1020.11 1020.72 1021.32 1021.92 1022.51 1023.11 1023.69 1024.24 1024.74 1025.17 1025.50 1025.72 1025.84 1025.85 1025.76 1025.61 1025.42 1025.19 1024.94 1024.67 1024.36 1024.00 1023.56 1023.03 1022.39 1021.64 1020.79 1019.86 1018.89 1017.89 1016.87 1015.84 1014.78 1013.67 1012.45 1011.10
1017.92 1018.55 1019.16 1019.78 1020.40 1021.03 1021.68 1022.35 1023.02 1023.67 1024.27 1024.79 1025.21 1025.52 1025.70 1025.77 1025.75 1025.66 1025.51 1025.34 1025.14 1024.92 1024.67 1024.36 1023.96 1023.47 1022.86 1022.13 1021.30 1020.39 1019.43 1018.45 1017.47 1016.48 1015.47 1014.43 1013.30 1012.05
1017.00 1017.62 1018.23 1018.84 1019.46 1020.10 1020.78 1021.49 1022.21 1022.92 1023.60 1024.21 1024.72 1025.11 1025.39 1025.55 1025.62 1025.61 1025.55 1025.45 1025.32 1025.17 1024.98 1024.72 1024.37 1023.92 1023.34 1022.65 1021.84 1020.95 1020.01 1019.05 1018.09 1017.13 1016.17 1015.19 1014.14 1012.99
1016.08 1016.72 1017.32 1017.92 1018.52 1019.16 1019.83 1020.54 1021.28 1022.03 1022.76 1023.44 1024.03 1024.53 1024.92 1025.19 1025.38 1025.48 1025.52 1025.52 1025.49 1025.41 1025.29 1025.09 1024.79 1024.38 1023.84 1023.17 1022.39 1021.53 1020.61 1019.67 1018.73 1017.80 1016.88 1015.95 1014.97 1013.91
1015.18 1015.83 1016.44 1017.03 1017.61 1018.22 1018.86 1019.55 1020.29 1021.05 1021.81 1022.55 1023.23 1023.83 1024.33 1024.74 1025.06 1025.30 1025.47 1025.58 1025.64 1025.65 1025.59 1025.44 1025.19 1024.82 1024.31 1023.68 1022.93 1022.10 1021.21 1020.30 1019.38 1018.48 1017.59 1016.70 1015.78 1014.80
1014.30 1014.97 1015.59 1016.17 1016.74 1017.32 1017.93 1018.59 1019.31 1020.07 1020.85 1021.64 1022.39 1023.09 1023.72 1024.27 1024.73 1025.11 1025.41 1025.64 1025.79 1025.88 1025.87 1025.77 1025.56 1025.22 1024.75 1024.16 1023.45 1022.65 1021.80 1020.92 1020.04 1019.17 1018.31 1017.46 1016.59 1015.68
1013.45 1014.15 1014.78 1015.37 1015.93 1016.49 1017.08 1017.72 1018.42 1019.18 1019.98 1020.81 1021.64 1022.44 1023.19 1023.86 1024.46 1024.96 1025.38 1025.71 1025.95 1026.09 1026.13 1026.07 1025.88 1025.57 1025.14 1024.59 1023.93 1023.18 1022.38 1021.55 1020.71 1019.88 1019.05 1018.23 1017.41 1016.55
1012.66 1013.37 1014.03 1014.63 1015.21 1015.77 1016.37 1017.00 1017.71 1018.47 1019.30 1020.17 1021.06 1021.94 1022.79 1023.57 1024.28 1024.89 1025.40 1025.81 1026.11 1026.29 1026.37 1026.32 1026.16 1025.88 1025.48 1024.97 1024.37 1023.69 1022.96 1022.20 1021.41 1020.62 1019.84 1019.05 1018.26 1017.45
1011.93 1012.66 1013.35 1013.98 1014.59 1015.19 1015.81 1016.47 1017.19 1017.98 1018.84 1019.75 1020.69 1021.63 1022.55 1023.42 1024.21 1024.90 1025.47 1025.93 1026.26 1026.47 1026.56 1026.53 1026.38 1026.13 1025.78 1025.33 1024.80 1024.20 1023.55 1022.86 1022.15 1021.42 1020.68 1019.93 1019.17 1018.39
1011.31 1012.04 1012.74 1013.43 1014.08 1014.74 1015.41 1016.11 1016.87 1017.70 1018.59 1019.53 1020.51 1021.50 1022.47 1023.38 1024.22 1024.95 1025.56 1026.05 1026.39 1026.61 1026.71 1026.69 1026.57 1026.35 1026.05 1025.67 1025.22 1024.72 1024.16 1023.57 1022.93 1022.27 1021.58 1020.86 1020.13 1019.39
1010.79 1011.51 1012.23 1012.96 1013.67 1014.39 1015.13 1015.89 1016.71 1017.57 1018.50 1019.47 1020.47 1021.48 1022.46 1023.40 1024.25 1025.00 1025.63 1026.12 1026.48 1026.71 1026.82 1026.82 1026.73 1026.55 1026.31 1026.01 1025.66 1025.25 1024.80 1024.30 1023.75 1023.15 1022.52 1021.84 1021.14 1020.42
1010.40 1011.08 1011.81 1012.56 1013.33 1014.11 1014.91 1015.74 1016.61 1017.51 1018.46 1019.45 1020.46 1021.47 1022.46 1023.40 1024.25 1025.00 1025.64 1026.14 1026.50 1026.75 1026.88 1026.91 1026.86 1026.75 1026.58 1026.37 1026.11 1025.80 1025.45 1025.04 1024.57 1024.05 1023.47 1022.83 1022.16 1021.46
1010.11 1010.75 1011.46 1012.23 1013.02 1013.85 1014.71 1015.58 1016.49 1017.43 1018.40 1019.39 1020.40 1021.41 1022.38 1023.31 1024.16 1024.91 1025.55 1026.06 1026.45 1026.73 1026.90 1026.98 1026.99 1026.94 1026.86 1026.73 1026.56 1026.35 1026.09 1025.76 1025.37 1024.91 1024.38 1023.78 1023.14 1022.46
1009.93 1010.49 1011.16 1011.91 1012.72 1013.56 1014.44 1015.35 1016.28 1017.23 1018.21 1019.20 1020.20 1021.20 1022.17 1023.09 1023.94 1024.70 1025.36 1025.90 1026.33 1026.65 1026.88 1027.03 1027.11 1027.14 1027.13 1027.08 1027.00 1026.86 1026.68 1026.43 1026.10 1025.70 1025.21 1024.65 1024.04 1023.38
1009.82 1010.30 1010.90 1011.60 1012.37 1013.20 1014.07 1014.98 1015.91 1016.87 1017.84 1018.83 1019.83 1020.82 1021.79 1022.72 1023.59 1024.38 1025.08 1025.67 1026.16 1026.54 1026.84 1027.06 1027.21 1027.32 1027.38 1027.40 1027.38 1027.31 1027.19 1026.99 1026.72 1026.36 1025.92 1025.40 1024.82 1024.20
1009.77 1010.14 1010.65 1011.27 1011.98 1012.76 1013.60 1014.48 1015.39 1016.33 1017.30 1018.29 1019.29 1020.29 1021.28 1022.23 1023.14 1023.97 1024.72 1025.38 1025.94 1026.40 1026.77 1027.07 1027.29 1027.47 1027.59 1027.67 1027.70 1027.68 1027.60 1027.45 1027.21 1026.90 1026.50 1026.02 1025.49 1024.91
1009.74 1010.00 1010.40 1010.92 1011.54 1012.24 1013.02 1013.85 1014.73 1015.66 1016.62 1017.61 1018.62 1019.64 1020.66 1021.66 1022.62 1023.51 1024.33 1025.07 1025.70 1026.24 1026.68 1027.05 1027.34 1027.57 1027.74 1027.86 1027.93 1027.94 1027.90 1027.78 1027.59 1027.32 1026.97 1026.54 1026.06 1025.53
1009.73 1009.88 1010.16 1010.56 1011.07 1011.68 1012.38 1013.15 1013.99 1014.89 1015.84 1016.84 1017.87 1018.93 1019.99 1021.05 1022.06 1023.03 1023.92 1024.72 1025.43 1026.04 1026.55 1026.98 1027.32 1027.60 1027.81 1027.97 1028.07 1028.11 1028.10 1028.02 1027.87 1027.65 1027.35 1026.99 1026.57 1026.10
1009.72 1009.76 1009.93 1010.21 1010.61 1011.12 1011.73 1012.43 1013.22 1014.09 1015.03 1016.04 1017.10 1018.20 1019.31 1020.42 1021.50 1022.52 1023.48 1024.35 1025.13 1025.80 1026.37 1026.84 1027.23 1027.55 1027.80 1027.99 1028.12 1028.20 1028.22 1028.19 1028.09 1027.93 1027.70 1027.40 1027.06 1026.67
1009.71 1009.66 1009.72 1009.89 1010.18 1010.59 1011.11 1011.74 1012.48 1013.32 1014.26 1015.27 1016.35 1017.49 1018.64 1019.80 1020.93 1022.01 1023.02 1023.94 1024.76 1025.48 1026.10 1026.62 1027.05 1027.40 1027.69 1027.92 1028.10 1028.22 1028.30 1028.32 1028.28 1028.19 1028.04 1027.82 1027.56 1027.24
Thickness
5537 5534 5530 5526 5522 5518 5513 5509 5505 5506 5509 5505 5500 5498 5493 5490 5487 5485 5482 5479 5476 5474 5471 5468 5466 5463 5461 5459 5457 5456 5455 5454 5454 5454 5455 5457 5458 5459
5530 5526 5522 5518 5514 5509 5505 5500 5496 5493 5493 5494 5491 5487 5484 5481 5478 5476 5473 5469 5466 5464 5461 5459 5457 5454 5452 5450 5448 5447 5446 5446 5446 5446 5447 5448 5450 5451
5521 5518 5514 5510 5505 5501 5497 5493 5488 5484 5483 5485 5481 5479 5476 5473 5471 5467 5464 5461 5458 5454 5452 5450 5448 5446 5443 5441 5440 5439 5438 5437 5437 5438 5439 5441 5442 5443
5513 5510 5506 5502 5498 5493 5489 5485 5481 5477 5474 5475 5474 5470 5467 5464 5462 5458 5455 5452 5449 5446 5443 5441 5439 5437 5435 5433 5432 5431 5430 5429 5429 5430 5431 5433 5434 5436
5505 5501 5498 5494 5490 5486 5482 5478 5474 5471 5467 5465 5464 5462 5459 5456 5454 5451 5447 5444 5440 5437 5435 5433 5431 5429 5427 5426 5425 5424 5423 5422 5422 5422 5423 5425 5426 5429
5496 5493 5490 5486 5483 5479 5475 5471 5467 5464 5460 5457 5455 5454 5451 5448 5444 5442 5442 5438 5434 5431 5428 5425 5424 5422 5420 5419 5419 5418 5416 5416 5415 5415 5416 5418 5420 5422
5487 5484 5481 5478 5475 5471 5468 5464 5460 5457 5454 5450 5448 5446 5443 5440 5435 5432 5429 5428 5427 5423 5421 5420 5419 5417 5416 5414 5413 5412 5411 5410 5410 5410 5411 5412 5414 5416
5478 5475 5473 5470 5467 5464 5461 5457 5454 5450 5447 5443 5440 5437 5434 5430 5427 5423 5419 5418 5420 5418 5413 5414 5413 5411 5411 5410 5409 5408 5407 5406 5405 5406 5406 5407 5409 5412
5469 5466 5464 5462 5459 5456 5453 5450 5446 5443 5440 5436 5432 5429 5426 5423 5420 5417 5412 5408 5407 5407 5406 5408 5408 5406 5405 5405 5404 5404 5403 5402 5401 5402 5403 5404 5405 5407
5460 5458 5455 5453 5451 5449 5446 5442 5439 5436 5433 5430 5426 5423 5419 5416 5413 5409 5405 5404 5403 5401 5399 5400 5402 5401 5402 5400 5399 5399 5399 5398 5398 5398 5399 5400 5401 5403
5451 5449 5447 5445 5444 5442 5438 5435 5432 5429 5426 5423 5420 5417 5414 5410 5407 5404 5401 5399 5399 5399 5395 5393 5395 5396 5398 5397 5395 5394 5393 5393 5394 5395 5396 5397 5398 5399
5441 5440 5438 5436 5435 5433 5430 5427 5425 5423 5420 5417 5414 5411 5407 5404 5401 5397 5394 5392 5391 5392 5391 5387 5388 5387 5392 5393 5390 5389 5389 5389 5390 5390 5391 5392 5393 5395
5432 5430 5429 5428 5426 5424 5421 5418 5417 5415 5412 5409 5406 5404 5402 5399 5396 5393 5389 5387 5385 5384 5384 5382 5382 5380 5379 5384 5387 5386 5385 5385 5385 5386 5386 5387 5389 5390
5423 5421 5419 5418 5417 5414 5412 5411 5409 5407 5404 5401 5399 5397 5395 5393 5391 5389 5386 5384 5382 5380 5380 5377 5377 5376 5376 5378 5380 5382 5382 5381 5381 5382 5382 5384 5385 5386
5413 5412 5410 5408 5407 5404 5402 5401 5399 5397 5396 5394 5392 5390 5388 5387 5386 5385 5384 5382 5381 5379 5378 5376 5374 5374 5373 5373 5375 5376 5378 5379 5379 5379 5379 5380 5381 5383
5403 5401 5400 5398 5396 5395 5393 5391 5390 5388 5387 5386 5385 5384 5383 5382 5381 5380 5379 5378 5378 5378 5376 5375 5373 5372 5372 5372 5372 5373 5374 5374 5377 5377 5377 5379 5380 5381
5394 5392 5390 5388 5387 5385 5384 5383 5382 5381 5380 5379 5378 5378 5378 5377 5377 5376 5374 5373 5372 5373 5374 5374 5373 5372 5372 5371 5371 5372 5372 5373 5374 5375 5376 5378 5380 5381
5385 5382 5380 5379 5377 5376 5375 5374 5374 5373 5373 5373 5372 5372 5372 5372 5372 5371 5370 5369 5369 5369 5369 5369 5370 5372 5373 5373 5370 5369 5370 5371 5373 5374 5374 5375 5379 5381
5375 5373 5371 5370 5369 5367 5366 5366 5366 5366 5366 5366 5367 5367 5367 5368 5368 5367 5366 5366 5366 5366 5366 5366 5365 5366 5368 5370 5369 5368 5367 5369 5371 5372 5373 5373 5375 5379
5365 5364 5363 5362 5361 5360 5360 5359 5360 5360 5361 5361 5361 5362 5362 5363 5363 5363 5363 5362 5362 5363 5364 5364 5363 5362 5362 5361 5363 5365 5366 5366 5368 5370 5371 5373 5375 5378
5356 5356 5355 5355 5354 5354 5354 5354 5354 5354 5355 5356 5357 5357 5358 5358 5359 5359 5359 5360 5360 5361 5361 5361 5360 5360 5359 5360 5361 5363 5365 5365 5365 5366 5368 5371 5374 5377
5347 5347 5347 5347 5348 5348 5348 5349 5349 5350 5351 5351 5352 5353 5354 5354 5355 5355 5356 5357 5357 5357 5358 5358 5358 5358 5358 5358 5359 5360 5362 5364 5365 5366 5368 5370 5370 5372
5339 5340 5340 5341 5342 5342 5343 5344 5345 5346 5346 5347 5349 5350 5350 5351 5352 5353 5353 5354 5354 5354 5354 5355 5356 5356 5355 5355 5356 5358 5359 5361 5363 5365 5367 5369 5370 5372